TimeCST,TemperatureF,Dew PointF,Humidity,Sea Level PressureIn,VisibilityMPH,Wind Direction,Wind SpeedMPH,Gust SpeedMPH,PrecipitationIn,Events,Conditions,WindDirDegrees,DateUTC
12:13 AM,15.8,15.8,100,30.19,10.0,Calm,Calm,-,N/A,,Clear,0,2013-11-19 06:13:00
12:33 AM,17.6,15.8,93,30.18,10.0,SE,3.5,-,N/A,,Clear,140,2013-11-19 06:33:00
12:54 AM,17.6,15.8,93,30.19,10.0,Calm,Calm,-,N/A,,Clear,0,2013-11-19 06:54:00
1:13 AM,15.8,15.8,100,30.18,10.0,ESE,3.5,-,N/A,,Clear,120,2013-11-19 07:13:00
1:33 AM,15.8,15.8,100,30.17,10.0,Calm,Calm,-,N/A,,Clear,0,2013-11-19 07:33:00
1:54 AM,15.8,15.8,100,30.17,10.0,Calm,Calm,-,N/A,,Clear,0,2013-11-19 07:54:00
2:13 AM,15.8,15.8,100,30.17,10.0,Calm,Calm,-,N/A,,Clear,0,2013-11-19 08:13:00
2:33 AM,17.6,15.8,93,30.17,10.0,SE,3.5,-,N/A,,Clear,130,2013-11-19 08:33:00
2:53 AM,17.6,15.8,93,30.17,10.0,SE,4.6,-,N/A,,Clear,130,2013-11-19 08:53:00
3:13 AM,17.6,15.8,93,30.16,10.0,SE,4.6,-,N/A,,Clear,130,2013-11-19 09:13:00
3:33 AM,17.6,15.8,93,30.15,10.0,ESE,3.5,-,N/A,,Clear,120,2013-11-19 09:33:00
3:54 AM,17.6,15.8,93,30.15,10.0,ESE,3.5,-,N/A,,Clear,120,2013-11-19 09:54:00
4:13 AM,17.6,15.8,93,30.14,10.0,Calm,Calm,-,N/A,,Clear,0,2013-11-19 10:13:00
4:33 AM,17.6,15.8,93,30.13,10.0,Calm,Calm,-,N/A,,Clear,0,2013-11-19 10:33:00
4:54 AM,17.6,15.8,93,30.13,10.0,ESE,3.5,-,N/A,,Clear,120,2013-11-19 10:54:00
5:13 AM,19.4,17.6,93,30.12,10.0,ESE,3.5,-,N/A,,Clear,120,2013-11-19 11:13:00
5:33 AM,19.4,17.6,93,30.12,10.0,ESE,4.6,-,N/A,,Clear,120,2013-11-19 11:33:00
5:54 AM,19.4,17.6,93,30.10,10.0,SE,4.6,-,N/A,,Clear,130,2013-11-19 11:54:00
6:13 AM,19.4,17.6,93,30.09,10.0,ESE,5.8,-,N/A,,Clear,120,2013-11-19 12:13:00
6:33 AM,19.4,17.6,93,30.09,10.0,SE,6.9,-,N/A,,Clear,130,2013-11-19 12:33:00
6:54 AM,19.4,17.6,93,30.08,10.0,SE,6.9,-,N/A,,Clear,130,2013-11-19 12:54:00
7:13 AM,19.4,17.6,93,30.08,10.0,SE,5.8,-,N/A,,Clear,140,2013-11-19 13:13:00
7:33 AM,21.2,17.6,86,30.08,10.0,SE,8.1,-,N/A,,Clear,130,2013-11-19 13:33:00
7:54 AM,21.2,19.4,93,30.07,10.0,SE,8.1,-,N/A,,Clear,130,2013-11-19 13:54:00
8:13 AM,23.0,19.4,86,30.06,10.0,SE,9.2,-,N/A,,Clear,130,2013-11-19 14:13:00
8:34 AM,24.8,19.4,80,30.05,10.0,ESE,10.4,16.1,N/A,,Clear,120,2013-11-19 14:34:00
8:53 AM,24.8,19.4,80,30.04,10.0,SE,6.9,-,N/A,,Clear,130,2013-11-19 14:53:00
9:13 AM,24.8,19.4,80,30.03,10.0,SE,9.2,-,N/A,,Clear,130,2013-11-19 15:13:00
9:34 AM,26.6,19.4,74,30.02,10.0,ESE,8.1,16.1,N/A,,Clear,120,2013-11-19 15:34:00
9:53 AM,26.6,21.2,80,30.01,10.0,SE,10.4,-,N/A,,Clear,140,2013-11-19 15:53:00
10:13 AM,28.4,21.2,74,30.00,10.0,ESE,11.5,19.6,N/A,,Clear,120,2013-11-19 16:13:00
10:34 AM,28.4,21.2,74,29.98,10.0,SE,10.4,-,N/A,,Clear,130,2013-11-19 16:34:00
10:53 AM,30.2,21.2,69,29.96,10.0,SE,12.7,19.6,N/A,,Clear,140,2013-11-19 16:53:00
11:13 AM,32.0,21.2,64,29.96,10.0,SSE,15.0,24.2,N/A,,Clear,150,2013-11-19 17:13:00
11:33 AM,32.0,23.0,69,29.94,10.0,SSE,16.1,19.6,N/A,,Clear,150,2013-11-19 17:33:00
11:53 AM,32.0,23.0,69,29.93,10.0,SE,12.7,20.7,N/A,,Clear,140,2013-11-19 17:53:00
12:13 PM,33.8,23.0,65,29.91,10.0,SE,12.7,21.9,N/A,,Clear,140,2013-11-19 18:13:00
12:33 PM,33.8,23.0,65,29.90,10.0,SE,13.8,18.4,N/A,,Clear,140,2013-11-19 18:33:00
12:53 PM,35.6,24.8,65,29.89,10.0,SE,13.8,18.4,N/A,,Clear,140,2013-11-19 18:53:00
1:13 PM,35.6,24.8,65,29.87,10.0,SE,16.1,24.2,N/A,,Clear,140,2013-11-19 19:13:00
1:33 PM,35.6,24.8,65,29.86,10.0,SE,12.7,25.3,N/A,,Clear,140,2013-11-19 19:33:00
1:54 PM,37.4,24.8,60,29.84,10.0,SSE,16.1,23.0,N/A,,Clear,150,2013-11-19 19:54:00
2:13 PM,37.4,26.6,65,29.83,10.0,SE,11.5,20.7,N/A,,Clear,140,2013-11-19 20:13:00
2:33 PM,37.4,26.6,65,29.81,10.0,SE,11.5,17.3,N/A,,Clear,140,2013-11-19 20:33:00
2:54 PM,39.2,26.6,61,29.79,10.0,SE,12.7,18.4,N/A,,Clear,140,2013-11-19 20:54:00
3:13 PM,41.0,26.6,57,29.79,10.0,SE,12.7,24.2,N/A,,Clear,140,2013-11-19 21:13:00
3:33 PM,42.8,28.4,57,29.79,10.0,SSE,12.7,19.6,N/A,,Clear,150,2013-11-19 21:33:00
3:54 PM,42.8,28.4,57,29.78,10.0,SSE,12.7,20.7,N/A,,Clear,150,2013-11-19 21:54:00
4:13 PM,42.8,28.4,57,29.77,10.0,SSE,17.3,24.2,N/A,,Clear,150,2013-11-19 22:13:00
4:33 PM,41.0,28.4,61,29.76,10.0,SSE,11.5,23.0,N/A,,Clear,150,2013-11-19 22:33:00
4:53 PM,41.0,28.4,61,29.76,10.0,SSE,15.0,24.2,N/A,,Clear,150,2013-11-19 22:53:00
5:13 PM,41.0,28.4,61,29.75,10.0,SSE,17.3,24.2,N/A,,Clear,160,2013-11-19 23:13:00
5:33 PM,41.0,28.4,61,29.75,10.0,SSE,16.1,25.3,N/A,,Clear,150,2013-11-19 23:33:00
5:54 PM,39.2,28.4,65,29.75,10.0,SSE,12.7,23.0,N/A,,Clear,150,2013-11-19 23:54:00
6:13 PM,39.2,28.4,65,29.75,10.0,SSE,18.4,28.8,N/A,,Clear,160,2013-11-20 00:13:00
6:33 PM,41.0,28.4,61,29.74,10.0,SSE,19.6,23.0,N/A,,Clear,150,2013-11-20 00:33:00
6:53 PM,41.0,28.4,61,29.74,10.0,SSE,15.0,25.3,N/A,,Clear,160,2013-11-20 00:53:00
7:13 PM,41.0,28.4,61,29.74,10.0,SSE,16.1,24.2,N/A,,Clear,150,2013-11-20 01:13:00
7:33 PM,41.0,30.2,65,29.74,10.0,SSE,17.3,24.2,N/A,,Clear,160,2013-11-20 01:33:00
7:53 PM,41.0,30.2,65,29.74,10.0,SSE,17.3,21.9,N/A,,Clear,160,2013-11-20 01:53:00
8:14 PM,42.8,30.2,61,29.74,10.0,SSE,17.3,25.3,N/A,,Clear,160,2013-11-20 02:14:00
8:33 PM,42.8,30.2,61,29.74,10.0,SSE,19.6,28.8,N/A,,Clear,160,2013-11-20 02:33:00
8:53 PM,42.8,30.2,61,29.74,10.0,SSE,18.4,25.3,N/A,,Clear,160,2013-11-20 02:53:00
9:14 PM,42.8,30.2,61,29.74,10.0,South,18.4,25.3,N/A,,Clear,170,2013-11-20 03:14:00
9:33 PM,42.8,30.2,61,29.74,10.0,SSE,20.7,29.9,N/A,,Clear,160,2013-11-20 03:33:00
9:53 PM,42.8,30.2,61,29.74,10.0,South,24.2,32.2,N/A,,Clear,180,2013-11-20 03:53:00
10:14 PM,42.8,30.2,61,29.73,10.0,South,24.2,31.1,N/A,,Clear,170,2013-11-20 04:14:00
10:33 PM,42.8,30.2,61,29.73,10.0,South,17.3,28.8,N/A,,Clear,170,2013-11-20 04:33:00
10:53 PM,42.8,30.2,61,29.73,10.0,South,20.7,31.1,N/A,,Clear,170,2013-11-20 04:53:00
11:14 PM,42.8,30.2,61,29.73,10.0,SSE,18.4,35.7,N/A,,Clear,160,2013-11-20 05:14:00
11:33 PM,42.8,30.2,61,29.73,10.0,South,19.6,27.6,N/A,,Clear,170,2013-11-20 05:33:00
11:53 PM,42.8,30.2,61,29.73,10.0,South,20.7,27.6,N/A,,Clear,170,2013-11-20 05:53:00